BAW920 EGLL-EDDL

Flight info

Callsign BAW920
Flight time N/A
Altitude 33000
Route BPK Q295 BRAIN M197 REDFA DCT TACHA DCT PAM P62 PISAP PISAP1A
Aircraft A21N/M-SDE2E3FGHIRWXY/LB1

Departure

Time 2026-05-05 09:45
Airport London Heathrow Airport (EGLL)

Arrival

Time N/A
Airport Düsseldorf Airport (EDDL)
Time Latitude Longitude Altitude Speed Heading
2026-05-05 09:17 51.46913 -0.48033 81 ft 0 kts 270°
2026-05-05 09:33 51.46913 -0.48011 81 ft 2 kts 270°
2026-05-05 09:33 51.46913 -0.47988 81 ft 1 kts 270°
2026-05-05 09:34 51.46913 -0.47969 81 ft 2 kts 262°
2026-05-05 09:34 51.46917 -0.47946 81 ft 2 kts 250°
2026-05-05 09:34 51.46923 -0.47924 81 ft 2 kts 237°
2026-05-05 09:34 51.46933 -0.47904 81 ft 2 kts 225°
2026-05-05 09:35 51.46945 -0.47888 81 ft 2 kts 213°
2026-05-05 09:35 51.46973 -0.47870 81 ft 2 kts 188°
2026-05-05 09:35 51.46983 -0.47868 81 ft 0 kts 181°
2026-05-05 09:36 51.46988 -0.47869 81 ft 0 kts 179°
2026-05-05 09:39 51.46967 -0.47868 81 ft 7 kts 179°
2026-05-05 09:39 51.46882 -0.47867 81 ft 14 kts 180°
2026-05-05 09:39 51.46773 -0.47867 81 ft 13 kts 181°
2026-05-05 09:39 51.46698 -0.47870 81 ft 8 kts 195°
2026-05-05 09:40 51.46664 -0.47931 81 ft 0 kts 283°
2026-05-05 09:40 51.46662 -0.47970 81 ft 5 kts 263°
2026-05-05 09:40 51.46655 -0.48047 81 ft 7 kts 262°
2026-05-05 09:40 51.46652 -0.48098 81 ft 0 kts 271°
2026-05-05 09:41 51.46652 -0.48100 81 ft 0 kts 271°
2026-05-05 09:42 51.46653 -0.48184 80 ft 17 kts 271°
2026-05-05 09:42 51.46653 -0.48396 78 ft 19 kts 269°
2026-05-05 09:42 51.46651 -0.48605 78 ft 16 kts 270°
2026-05-05 09:43 51.46640 -0.48726 78 ft 7 kts 237°
2026-05-05 09:43 51.46590 -0.48772 78 ft 9 kts 201°
2026-05-05 09:43 51.46517 -0.48779 78 ft 11 kts 156°
2026-05-05 09:43 51.46477 -0.48673 78 ft 11 kts 96°
2026-05-05 09:44 51.46476 -0.48628 78 ft 0 kts 90°
2026-05-05 09:44 51.46477 -0.48416 78 ft 59 kts 90°
2026-05-05 09:44 51.46479 -0.47278 78 ft 141 kts 89°
2026-05-05 09:44 51.46491 -0.45442 261 ft 183 kts 89°
2026-05-05 09:45 51.46518 -0.43293 677 ft 201 kts 89°
2026-05-05 09:45 51.46699 -0.40944 1204 ft 222 kts 69°
2026-05-05 09:45 51.47586 -0.38841 1783 ft 243 kts 48°
2026-05-05 09:45 51.48753 -0.36800 2533 ft 258 kts 47°
2026-05-05 09:46 51.49979 -0.34636 3539 ft 264 kts 48°
2026-05-05 09:46 51.51190 -0.32451 4575 ft 266 kts 49°
2026-05-05 09:46 51.52299 -0.30121 5529 ft 270 kts 63°
2026-05-05 09:46 51.52996 -0.27340 6499 ft 273 kts 72°
2026-05-05 09:47 51.53576 -0.24402 7434 ft 277 kts 72°
2026-05-05 09:47 51.54166 -0.21483 8327 ft 281 kts 70°
2026-05-05 09:47 51.55126 -0.18765 9161 ft 286 kts 45°
2026-05-05 09:47 51.56765 -0.17050 10034 ft 287 kts 19°
2026-05-05 09:48 51.58732 -0.16631 10747 ft 295 kts 354°
2026-05-05 09:48 51.60735 -0.17479 11239 ft 309 kts 341°
2026-05-05 09:48 51.62884 -0.18165 11620 ft 328 kts
2026-05-05 09:48 51.65184 -0.17446 11997 ft 345 kts 22°
2026-05-05 09:49 51.67014 -0.15766 12317 ft 360 kts 33°
2026-05-05 09:49 51.69030 -0.13886 12626 ft 374 kts 25°
2026-05-05 09:49 51.71447 -0.12263 13251 ft 380 kts 24°
2026-05-05 09:50 51.73598 -0.09916 13902 ft 383 kts 45°
2026-05-05 09:50 51.75130 -0.06384 14590 ft 386 kts 65°
2026-05-05 09:50 51.75821 -0.02274 15237 ft 389 kts 82°
2026-05-05 09:50 51.76140 0.02064 15894 ft 393 kts 83°
2026-05-05 09:51 51.76447 0.06458 16504 ft 397 kts 83°
2026-05-05 09:51 51.76778 0.10871 17112 ft 400 kts 83°
2026-05-05 09:51 51.77132 0.15360 17714 ft 404 kts 82°
2026-05-05 09:51 51.77497 0.19853 18295 ft 407 kts 82°
2026-05-05 09:52 51.77863 0.24350 18856 ft 411 kts 82°
2026-05-05 09:52 51.78234 0.28919 19404 ft 414 kts 82°
2026-05-05 09:52 51.78608 0.33546 19942 ft 417 kts 82°
2026-05-05 09:52 51.78982 0.38203 20465 ft 421 kts 82°
2026-05-05 09:53 51.79356 0.42889 20974 ft 424 kts 82°
2026-05-05 09:53 51.79729 0.47597 21468 ft 427 kts 82°
2026-05-05 09:53 51.80100 0.52316 21948 ft 430 kts 82°
2026-05-05 09:53 51.80476 0.57121 22424 ft 433 kts 82°
2026-05-05 09:54 51.80864 0.61926 22878 ft 436 kts 81°
2026-05-05 09:54 51.81393 0.66791 23326 ft 439 kts 78°
2026-05-05 09:54 51.82068 0.71534 23753 ft 442 kts 76°
2026-05-05 09:54 51.82822 0.76437 24176 ft 445 kts 76°
2026-05-05 09:55 51.83592 0.81298 24579 ft 447 kts 75°
2026-05-05 09:55 51.84443 0.86080 24962 ft 450 kts 73°
2026-05-05 09:55 51.85341 0.90995 25342 ft 452 kts 73°
2026-05-05 09:55 51.86252 0.95964 25716 ft 455 kts 73°
2026-05-05 09:56 51.87145 1.00854 26064 ft 457 kts 73°
2026-05-05 09:56 51.88059 1.05879 26516 ft 457 kts 73°
2026-05-05 09:56 51.88955 1.10835 27023 ft 455 kts 73°
2026-05-05 09:56 51.89845 1.15765 27496 ft 454 kts 73°
2026-05-05 09:57 51.90731 1.20693 27935 ft 453 kts 73°
2026-05-05 09:57 51.91624 1.25676 28372 ft 452 kts 73°
2026-05-05 09:57 51.92506 1.30607 28795 ft 451 kts 73°
2026-05-05 09:57 51.93380 1.35512 29213 ft 450 kts 73°
2026-05-05 09:58 51.94249 1.40406 29620 ft 450 kts 73°
2026-05-05 09:58 51.95105 1.45240 30013 ft 449 kts 73°
2026-05-05 09:58 51.95969 1.50129 30403 ft 448 kts 73°
2026-05-05 09:58 51.96812 1.54915 30773 ft 447 kts 73°
2026-05-05 09:59 51.97673 1.59818 31147 ft 447 kts 73°
2026-05-05 09:59 51.98513 1.64617 31476 ft 447 kts 73°
2026-05-05 09:59 51.99349 1.69445 31749 ft 448 kts 75°
2026-05-05 09:59 52.00140 1.74385 32005 ft 449 kts 76°
2026-05-05 10:00 52.00889 1.79248 32255 ft 450 kts 76°
2026-05-05 10:00 52.01646 1.84192 32507 ft 451 kts 76°
2026-05-05 10:00 52.02393 1.89071 32748 ft 452 kts 76°
2026-05-05 10:00 52.03154 1.94025 32951 ft 453 kts 76°
2026-05-05 10:01 52.04679 2.03971 32982 ft 454 kts 76°
2026-05-05 10:01 52.06203 2.13944 32987 ft 454 kts 76°
2026-05-05 10:02 52.07708 2.23850 32989 ft 454 kts 76°
2026-05-05 10:02 52.09204 2.33759 32989 ft 454 kts 76°
2026-05-05 10:03 52.10712 2.43766 32988 ft 454 kts 76°
2026-05-05 10:03 52.12394 2.53572 32988 ft 454 kts 72°
2026-05-05 10:04 52.14273 2.63366 32988 ft 454 kts 72°
2026-05-05 10:04 52.16140 2.73179 32988 ft 454 kts 73°
2026-05-05 10:05 52.17984 2.82971 32988 ft 454 kts 73°
2026-05-05 10:05 52.19813 2.92734 32988 ft 454 kts 73°
2026-05-05 10:06 52.21644 3.02566 32988 ft 454 kts 73°
2026-05-05 10:06 52.23468 3.12412 32988 ft 454 kts 73°
2026-05-05 10:07 52.25096 3.22309 32988 ft 454 kts 78°
2026-05-05 10:07 52.26052 3.32462 32988 ft 454 kts 84°
2026-05-05 10:08 52.26568 3.42704 32988 ft 454 kts 85°
2026-05-05 10:08 52.27054 3.52978 32988 ft 454 kts 85°
2026-05-05 10:09 52.27534 3.63183 32988 ft 454 kts 85°
2026-05-05 10:09 52.28010 3.73443 32988 ft 454 kts 86°
2026-05-05 10:10 52.28476 3.83669 32988 ft 454 kts 86°
2026-05-05 10:10 52.28934 3.93888 32988 ft 454 kts 86°
2026-05-05 10:11 52.29388 4.04204 32988 ft 454 kts 86°
2026-05-05 10:11 52.29829 4.14431 32988 ft 454 kts 86°
2026-05-05 10:12 52.30262 4.24673 32988 ft 454 kts 86°
2026-05-05 10:12 52.30690 4.35007 32988 ft 454 kts 86°
2026-05-05 10:13 52.31106 4.45299 32988 ft 454 kts 86°
2026-05-05 10:13 52.31514 4.55612 32988 ft 454 kts 86°
2026-05-05 10:14 52.31915 4.65995 32988 ft 454 kts 86°
2026-05-05 10:14 52.32305 4.76382 32988 ft 454 kts 86°
2026-05-05 10:15 52.32688 4.86845 32988 ft 454 kts 86°
2026-05-05 10:15 52.32981 4.97296 32987 ft 454 kts 90°
2026-05-05 10:16 52.32435 5.07573 32988 ft 454 kts 99°
2026-05-05 10:16 52.30872 5.17540 32988 ft 454 kts 109°
2026-05-05 10:17 52.28417 5.26953 32988 ft 454 kts 115°
2026-05-05 10:17 52.25711 5.36246 32988 ft 454 kts 115°
2026-05-05 10:18 52.23001 5.45570 32951 ft 452 kts 115°
2026-05-05 10:18 52.21685 5.50105 32636 ft 448 kts 115°
2026-05-05 10:18 52.20346 5.54717 32007 ft 447 kts 115°
2026-05-05 10:19 52.19022 5.59273 31380 ft 446 kts 115°
2026-05-05 10:19 52.17704 5.63799 30745 ft 445 kts 115°
2026-05-05 10:19 52.16381 5.68336 30027 ft 446 kts 115°
2026-05-05 10:19 52.15062 5.72859 29268 ft 448 kts 115°
2026-05-05 10:20 52.13730 5.77415 28488 ft 450 kts 115°
2026-05-05 10:20 52.12386 5.82005 27698 ft 452 kts 115°
2026-05-05 10:20 52.11034 5.86610 26891 ft 453 kts 115°
2026-05-05 10:20 52.09684 5.91197 26067 ft 455 kts 115°
2026-05-05 10:21 52.08313 5.95838 25282 ft 455 kts 115°
2026-05-05 10:21 52.06953 6.00431 24752 ft 449 kts 116°
2026-05-05 10:21 52.05618 6.04927 24215 ft 443 kts 116°
2026-05-05 10:21 52.04291 6.09388 23628 ft 440 kts 116°
2026-05-05 10:22 52.02968 6.13828 23036 ft 436 kts 115°
2026-05-05 10:22 52.01659 6.18220 22457 ft 432 kts 115°
2026-05-05 10:22 52.00368 6.22541 21887 ft 429 kts 115°
2026-05-05 10:22 51.99077 6.26853 21350 ft 424 kts 116°
2026-05-05 10:23 51.97820 6.31039 20926 ft 404 kts 116°
2026-05-05 10:23 51.96608 6.35065 20441 ft 387 kts 116°
2026-05-05 10:23 51.95447 6.38911 20077 ft 375 kts 116°
2026-05-05 10:23 51.94340 6.42571 19994 ft 348 kts 116°
2026-05-05 10:24 51.93319 6.45942 19978 ft 322 kts 116°
2026-05-05 10:24 51.92360 6.49104 19991 ft 314 kts 116°
2026-05-05 10:24 51.91380 6.52334 19986 ft 320 kts 116°
2026-05-05 10:24 51.90384 6.55610 19989 ft 327 kts 116°
2026-05-05 10:25 51.89372 6.58939 19983 ft 325 kts 114°
2026-05-05 10:25 51.88760 6.62335 19965 ft 317 kts 91°
2026-05-05 10:25 51.89120 6.65799 19985 ft 316 kts 67°
2026-05-05 10:25 51.90314 6.68733 19991 ft 315 kts 44°
2026-05-05 10:26 51.92138 6.70675 19993 ft 315 kts 20°
2026-05-05 10:26 51.94273 6.71291 19993 ft 314 kts 357°
2026-05-05 10:26 51.96389 6.70490 19992 ft 314 kts 334°
2026-05-05 10:26 51.98118 6.68433 19989 ft 314 kts 311°
2026-05-05 10:27 51.99274 6.65416 20000 ft 314 kts 296°
2026-05-05 10:27 52.00179 6.62242 19996 ft 315 kts 295°
2026-05-05 10:27 52.01100 6.59005 19994 ft 316 kts 295°
2026-05-05 10:27 52.02043 6.55771 19993 ft 317 kts 296°
2026-05-05 10:28 52.03003 6.52541 19992 ft 319 kts 296°
2026-05-05 10:28 52.03972 6.49307 19993 ft 320 kts 296°
2026-05-05 10:28 52.04920 6.46053 19988 ft 321 kts 291°
2026-05-05 10:28 52.05282 6.42519 19972 ft 321 kts 265°
2026-05-05 10:29 52.04679 6.39086 19976 ft 320 kts 241°
2026-05-05 10:29 52.03259 6.36345 19976 ft 320 kts 217°
2026-05-05 10:29 52.01294 6.34776 19978 ft 320 kts 193°
2026-05-05 10:29 51.99096 6.34598 19985 ft 319 kts 169°
2026-05-05 10:30 51.97024 6.35874 19991 ft 319 kts 145°
2026-05-05 10:30 51.95454 6.38383 19994 ft 318 kts 122°
2026-05-05 10:30 51.94445 6.41555 20002 ft 319 kts 115°
2026-05-05 10:30 51.93516 6.44797 19996 ft 320 kts 114°
2026-05-05 10:31 51.92574 6.48042 19994 ft 321 kts 115°
2026-05-05 10:31 51.91607 6.51288 19993 ft 322 kts 115°
2026-05-05 10:31 51.90623 6.54541 19993 ft 324 kts 116°
2026-05-05 10:31 51.89629 6.57804 19992 ft 325 kts 116°
2026-05-05 10:32 51.88735 6.61171 19976 ft 326 kts 102°
2026-05-05 10:32 51.88721 6.64806 19981 ft 325 kts 74°
2026-05-05 10:32 51.89717 6.67986 19993 ft 324 kts 50°
2026-05-05 10:32 51.91459 6.70309 19994 ft 324 kts 27°
2026-05-05 10:33 51.93598 6.71333 19994 ft 324 kts
2026-05-05 10:33 51.95786 6.70921 19992 ft 323 kts 341°
2026-05-05 10:33 51.97722 6.69110 19990 ft 323 kts 317°
2026-05-05 10:33 51.99047 6.66214 19995 ft 323 kts 296°
2026-05-05 10:34 52.00004 6.62886 19996 ft 324 kts 295°
2026-05-05 10:34 52.00933 6.59600 19994 ft 325 kts 295°
2026-05-05 10:34 52.01893 6.56284 19993 ft 327 kts 296°
2026-05-05 10:34 52.02886 6.52933 19993 ft 328 kts 296°
2026-05-05 10:35 52.03873 6.49636 19993 ft 329 kts 296°
2026-05-05 10:35 52.04866 6.46269 19990 ft 330 kts 292°
2026-05-05 10:35 52.05304 6.42662 19966 ft 330 kts 266°
2026-05-05 10:35 52.04700 6.39100 19974 ft 330 kts 241°
2026-05-05 10:36 52.03242 6.36300 19975 ft 330 kts 217°
2026-05-05 10:36 52.01173 6.34711 19977 ft 329 kts 191°
2026-05-05 10:36 51.98904 6.34647 19980 ft 329 kts 166°
2026-05-05 10:36 51.96831 6.36106 19989 ft 328 kts 143°
2026-05-05 10:37 51.95305 6.38784 19994 ft 328 kts 119°
2026-05-05 10:37 51.94297 6.42079 20001 ft 328 kts 114°
2026-05-05 10:37 51.93331 6.45445 20003 ft 336 kts 115°
2026-05-05 10:37 51.92348 6.48807 19933 ft 328 kts 115°
2026-05-05 10:38 51.91365 6.52090 19658 ft 322 kts 115°
2026-05-05 10:38 51.90391 6.55304 19368 ft 316 kts 116°
2026-05-05 10:38 51.89427 6.58466 19048 ft 312 kts 116°
2026-05-05 10:38 51.88309 6.61449 18727 ft 315 kts 129°
2026-05-05 10:39 51.86673 6.63994 18737 ft 339 kts 143°
2026-05-05 10:39 51.84542 6.65869 18714 ft 362 kts 160°
2026-05-05 10:39 51.82014 6.66757 18705 ft 384 kts 176°
2026-05-05 10:39 51.79326 6.66380 18700 ft 403 kts 194°
2026-05-05 10:40 51.76664 6.64857 18704 ft 409 kts 201°
2026-05-05 10:40 51.73873 6.63874 18666 ft 409 kts 181°
2026-05-05 10:40 51.71114 6.64548 18698 ft 410 kts 166°
2026-05-05 10:40 51.68352 6.65733 18694 ft 410 kts 166°
2026-05-05 10:41 51.65580 6.66785 18692 ft 410 kts 168°
2026-05-05 10:41 51.62796 6.67644 18692 ft 410 kts 170°
2026-05-05 10:41 51.59971 6.68375 18692 ft 410 kts 172°
2026-05-05 10:41 51.57182 6.69022 18692 ft 410 kts 172°
2026-05-05 10:42 51.51520 6.70277 18692 ft 410 kts 172°
2026-05-05 10:42 51.48724 6.70895 18624 ft 405 kts 172°
2026-05-05 10:42 51.45926 6.71514 18169 ft 402 kts 172°
2026-05-05 10:43 51.43188 6.72118 17513 ft 401 kts 172°
2026-05-05 10:43 51.40441 6.72724 16922 ft 399 kts 172°
2026-05-05 10:43 51.37711 6.73325 16372 ft 395 kts 172°
2026-05-05 10:43 51.34993 6.73926 15815 ft 392 kts 172°
2026-05-05 10:44 51.32422 6.75056 15193 ft 390 kts 154°
2026-05-05 10:44 51.30300 6.77749 14550 ft 388 kts 129°
2026-05-05 10:44 51.29056 6.81499 13688 ft 392 kts 106°
2026-05-05 10:44 51.28875 6.85794 12839 ft 395 kts 82°
2026-05-05 10:45 51.29849 6.89873 12213 ft 391 kts 57°
2026-05-05 10:45 51.31728 6.92860 11635 ft 380 kts 33°
2026-05-05 10:45 51.34121 6.94359 10847 ft 367 kts 11°
2026-05-05 10:45 51.36572 6.94990 10147 ft 353 kts
2026-05-05 10:46 51.38974 6.95604 9435 ft 341 kts
2026-05-05 10:46 51.41243 6.96186 8741 ft 330 kts
2026-05-05 10:46 51.43459 6.96756 8041 ft 320 kts
2026-05-05 10:46 51.45634 6.97315 7334 ft 311 kts
2026-05-05 10:47 51.47725 6.97853 6636 ft 304 kts
2026-05-05 10:47 51.49765 6.98379 5941 ft 298 kts
2026-05-05 10:47 51.51794 6.98984 5232 ft 292 kts 11°
2026-05-05 10:47 51.53742 6.99639 4537 ft 287 kts 12°
2026-05-05 10:48 51.55683 7.00306 3833 ft 283 kts 12°
2026-05-05 10:48 51.57594 7.00965 3293 ft 276 kts 12°
2026-05-05 10:48 51.59442 7.01604 3020 ft 268 kts 12°